Probability
0 0 0 0 0 0 0 0 0 0 0 0 0 0 0 0 0 0 0 0 0 0 0 0 0 0 0 0 0 0 0 0 0 0 0 0 0 0
0 0 0 0 0 0 0 0 0 0 0 0 0 0 0 0 0 0 0 0 0 0 0 0 0 0 0 0 0 0 0 0 0 0 0 0 0 0
0 0 0 0 0 0 0 0 0 0 0 0 0 0 0 0 0 0 0 0 0 0 0 0 0 0 0 0 0 0 0 0 0 0 0 0 0 0
0 0 0 0 0 0 0 0 0 0 0 0 0 0 0 0 0 0 0 0 0 0 0 0 0 0 0 0 0 0 0 0 0 0 0 0 0 0
0 0 0 0 0 0 0 0 0 0 0 0 0 0 0 0 0 0 0 0 0 0 0 0 0 0 0 0 0 0 0 0 0 0 0 0 0 0
0 0 0 0 0 0 0 0 0 0 0 0 0 0 0 0 0 0 0 0 0 0 0 0 0 0 0 0 0 0 0 0 0 0 0 0 0 0
0 0 0 0 0 0 0 0 0 0 0 0 0 0 0 0 0 0 0 0 0 0 0 0 0 0 0 0 0 0 0 0 0 0 0 0 0 0
0 0 0 0 0 0 0 0 0 0 0 0 0 0 0 0 0 0 0 0 0 0 0 0 0 0 0 0 0 0 0 0 0 0 0 0 0 0
0 0 0 0 0 0 0 0 0 0 0 0 0 0 0 0 0 0 0 0 0 0 0 0 0 0 0 0 0 0 0 0 0 0 0 0 0 0
0 0 0 0 0 0 0 0 0 0 0 0 0 0 0 0 0 0 0 0 0 0 0 0 0 0 0 0 0 0 0 0 0 0 0 0 0 0
0 0 0 0 0 0 0 0 0 0 0 0 0 0 0 0 0 0 0 0 0 0 0 0 0 0 0 0 0 0 0 0 0 0 0 0 0 0
0 0 0 0 0 0 0 0 0 0 0 0 0 0 0 0 0 0 0 0 0 0 0 0 0 0 0 0 0 0 0 0 0 0 0 0 0 0
0 0 0 0 0 0 0 0 0 0 0 0 0 0 0 0 0 0 0 0 0 0 0 0 0 0 0 0 0 0 0 0 0 0 0 0 0 0
0 0 0 0 0 0 0 0 0 0 0 0 0 0 0 0 0 0 0 0 0 0 0 0 0 0 0 0 0 0 0 0 0 0 0 0 0 0
0 0 0 0 0 0 0 0 0 0 0 0 0 0 0 0 0 0 0 0 0 0 0 0 0 0 0 0 0 0 0 0 0 0 0 0 0 0
0 0 0 0 0 0 0 0 0 0 0 0 0 0 0 0 0 0 0 0 0 0 0 0 0 0 0 0 0 0 0 0 0 0 0 0 0 0
0 0 0 0 0 0 0 0 0 0 0 0 0 0 0 0 0 0 0 0 0 0 0 0 0 0 0 0 0 0 0 0 0 0 0 0 0 0
0 0 0 0 0 0 0 0 0 0 0 0 0 0 0 0 0 0 0 0 0 0 0 0 0 0 0 0 0 0 0 0 0 0 0 0 0 0
0 0 0 0 0 0 0 0 0 0 0 0 0 0 0 0 0 0 0 0 0 0 0 0 0 0 0 0 0 0 0 0 0 0 0 0 0 0
0 0 0 0 0 0 0 0 0 0 0 0 0 0 0 0 0 0 0 0 0 0 0 0 0 0 0 0 0 0 0 0 0 0 0 0 0 0
0 0 0 0 0 0 0 0 0 0 0 0 0 0 0 0 0 0 0 0 0 0 0 0 0 0 0 0 0 0 0 0 0 0 0 0 0 0
0 0 0 0 0 0 0 0 0 0 0 0 0 0 0 0 0 0 0 0 0 0 0 0 0 0 0 0 0 0 0 0 0 0 0 0 0 0
0 0 0 0 0 0 0 0 0 0 0 0 0 0 0 0 0 0 0 0 0 0 0 0 0 0 0 0 0 0 0 0 0 0 0 0 0 0
Height
5718 5718 5718 5717 5717 5716 5715 5715 5714 5714 5714 5712 5710 5709 5707 5706 5704 5703 5701 5700 5699 5697 5695 5694 5692 5690 5689 5687 5685 5684 5683 5681 5680 5679 5678 5677 5677 5676
5707 5707 5706 5705 5705 5704 5703 5702 5701 5700 5700 5700 5697 5695 5693 5691 5689 5688 5686 5685 5683 5682 5680 5678 5676 5674 5673 5671 5669 5668 5666 5665 5664 5663 5662 5661 5661 5660
5695 5694 5694 5692 5692 5691 5689 5688 5687 5685 5685 5685 5683 5680 5678 5676 5674 5672 5670 5669 5667 5665 5663 5661 5660 5658 5656 5654 5652 5651 5650 5648 5647 5646 5645 5645 5644 5644
5683 5682 5680 5679 5678 5677 5675 5673 5672 5670 5669 5669 5668 5665 5663 5660 5658 5656 5654 5652 5650 5648 5645 5644 5642 5641 5639 5637 5635 5634 5633 5631 5630 5629 5629 5628 5628 5626
5669 5668 5667 5665 5664 5662 5660 5658 5656 5654 5653 5651 5651 5649 5647 5644 5641 5639 5637 5635 5633 5630 5628 5626 5625 5623 5622 5620 5618 5617 5616 5614 5613 5612 5611 5610 5610 5609
5655 5653 5652 5650 5648 5647 5645 5643 5641 5639 5637 5635 5634 5632 5630 5627 5624 5622 5621 5618 5616 5613 5611 5609 5608 5606 5605 5603 5602 5600 5599 5597 5596 5595 5594 5594 5593 5593
5639 5638 5637 5635 5633 5631 5629 5628 5625 5623 5621 5619 5618 5616 5614 5611 5608 5606 5604 5602 5600 5597 5595 5594 5592 5590 5588 5586 5585 5583 5582 5581 5579 5578 5578 5577 5577 5576
5624 5622 5621 5619 5617 5615 5614 5612 5610 5608 5605 5603 5602 5600 5598 5595 5593 5590 5588 5587 5586 5584 5580 5578 5576 5574 5572 5570 5569 5567 5566 5565 5564 5563 5562 5561 5561 5560
5608 5606 5605 5604 5601 5599 5598 5596 5594 5591 5589 5587 5586 5584 5583 5580 5577 5576 5573 5571 5570 5568 5565 5564 5561 5559 5557 5555 5553 5552 5551 5549 5548 5547 5547 5546 5545 5544
5592 5590 5589 5587 5585 5583 5581 5580 5578 5576 5574 5572 5570 5569 5567 5564 5561 5559 5557 5555 5554 5553 5549 5548 5547 5544 5542 5540 5539 5537 5535 5534 5533 5532 5531 5530 5529 5528
5576 5574 5572 5570 5569 5566 5564 5563 5562 5561 5558 5556 5555 5553 5551 5549 5546 5544 5542 5540 5540 5538 5535 5533 5532 5530 5528 5526 5524 5522 5521 5520 5518 5517 5516 5515 5514 5513
5560 5558 5556 5554 5552 5549 5548 5547 5546 5545 5543 5541 5540 5538 5536 5534 5531 5529 5527 5525 5524 5524 5522 5519 5517 5515 5515 5513 5511 5509 5507 5505 5504 5503 5501 5500 5498 5497
5544 5542 5540 5538 5536 5534 5532 5531 5530 5529 5527 5526 5524 5523 5521 5519 5517 5514 5512 5511 5510 5509 5508 5505 5503 5501 5500 5500 5498 5495 5493 5491 5490 5488 5487 5485 5483 5482
5528 5527 5525 5523 5521 5519 5518 5516 5515 5513 5512 5510 5509 5508 5506 5504 5503 5500 5498 5497 5496 5495 5493 5491 5489 5487 5486 5485 5484 5482 5479 5477 5475 5474 5472 5471 5469 5468
5513 5511 5510 5508 5506 5505 5503 5501 5500 5498 5496 5495 5494 5493 5492 5490 5488 5487 5485 5484 5482 5481 5479 5477 5476 5474 5472 5471 5470 5468 5466 5464 5461 5460 5458 5457 5455 5454
5498 5497 5495 5493 5492 5490 5489 5487 5485 5484 5482 5481 5480 5479 5478 5476 5475 5474 5472 5471 5470 5469 5467 5465 5463 5461 5459 5458 5456 5455 5452 5451 5449 5446 5445 5443 5442 5440
5484 5483 5482 5480 5478 5477 5475 5473 5472 5470 5469 5468 5466 5466 5464 5463 5462 5461 5460 5458 5458 5457 5455 5453 5451 5449 5447 5445 5444 5442 5440 5438 5436 5434 5433 5431 5429 5427
5470 5469 5468 5467 5465 5464 5462 5460 5459 5457 5456 5454 5453 5452 5451 5450 5449 5448 5447 5446 5446 5444 5443 5442 5440 5438 5437 5435 5433 5431 5429 5427 5425 5423 5421 5419 5418 5416
5457 5456 5455 5454 5452 5451 5449 5448 5446 5445 5443 5442 5441 5440 5439 5438 5437 5437 5436 5435 5434 5433 5432 5431 5429 5427 5426 5425 5423 5420 5418 5416 5414 5412 5410 5408 5407 5405
5445 5444 5442 5441 5439 5438 5437 5436 5435 5433 5432 5431 5430 5429 5428 5427 5426 5426 5425 5424 5423 5423 5421 5420 5418 5417 5416 5415 5413 5411 5408 5406 5404 5402 5400 5398 5397 5395
5433 5431 5430 5429 5428 5427 5426 5425 5424 5423 5421 5420 5419 5418 5417 5417 5416 5415 5414 5414 5413 5412 5411 5410 5408 5407 5405 5404 5404 5402 5400 5397 5394 5393 5391 5389 5388 5387
5421 5420 5419 5418 5417 5416 5415 5414 5413 5412 5411 5410 5409 5408 5408 5407 5406 5405 5404 5404 5403 5402 5401 5400 5398 5397 5396 5395 5394 5393 5391 5389 5386 5384 5382 5380 5379 5378
5410 5409 5408 5407 5407 5406 5405 5404 5403 5402 5401 5400 5400 5399 5398 5397 5396 5395 5394 5394 5393 5393 5392 5391 5390 5389 5388 5386 5385 5384 5382 5380 5378 5377 5375 5372 5371 5370
Wind_Speed
42 44 44 45 47 47 48 48 48 48 48 48 49 51 51 51 51 52 52 52 53 53 53 53 53 54 54 55 55 55 54 54 54 54 54 53 54 54
43 45 46 47 48 49 50 50 51 51 51 50 51 51 53 53 54 54 54 54 55 55 55 55 56 56 57 57 57 57 56 56 56 56 55 54 54 53
46 46 47 49 50 51 52 53 53 54 54 54 54 53 54 54 55 56 56 57 57 58 58 58 58 58 58 58 58 58 57 57 57 57 57 56 55 55
48 49 49 51 52 52 53 53 54 55 55 55 56 56 56 56 56 57 58 58 59 59 59 58 58 58 58 58 58 58 58 58 58 58 57 57 57 56
50 51 52 52 53 54 53 54 55 55 55 55 56 57 57 57 58 58 58 58 58 58 59 58 58 58 58 58 58 57 57 58 58 57 57 56 56 56
52 52 53 53 54 55 55 55 55 56 55 55 56 57 57 56 57 57 57 57 57 58 58 57 57 57 57 57 57 56 56 56 56 56 56 55 55 55
54 54 54 54 55 56 56 56 56 56 56 56 55 56 55 56 56 57 57 57 56 56 56 56 56 56 56 56 55 55 55 55 54 54 54 54 54 54
55 55 55 55 56 56 56 56 56 57 56 56 55 55 55 56 56 56 57 56 55 55 55 55 55 55 54 54 54 54 54 53 53 53 52 52 53 53
55 56 56 56 57 57 57 57 57 57 57 57 56 56 56 56 55 56 56 55 54 54 54 53 53 53 53 53 53 53 53 53 53 52 52 52 52 53
56 57 57 57 57 57 57 57 56 56 56 57 57 56 55 55 55 55 55 54 54 53 53 52 52 52 52 52 52 52 52 52 52 52 52 52 52 52
57 57 57 57 57 57 56 56 56 56 57 57 57 56 55 55 55 55 54 54 53 52 51 51 51 51 51 51 51 51 51 51 51 51 51 51 52 52
57 56 56 56 56 55 55 55 55 55 55 55 55 55 55 55 54 55 54 53 52 51 50 51 51 51 51 51 51 51 52 51 51 51 51 51 51 51
55 54 54 54 54 54 54 54 54 54 54 54 54 53 53 53 53 53 52 52 51 50 50 51 51 51 51 51 51 52 52 51 50 50 50 49 49 49
52 52 52 52 52 52 52 53 53 53 53 53 52 52 52 52 52 51 51 51 50 50 49 49 49 49 49 49 49 50 50 49 48 48 48 48 47 47
50 50 50 51 51 51 51 52 52 52 51 51 50 50 50 50 50 49 49 49 48 48 47 47 47 47 48 47 47 46 46 46 46 47 46 46 46 46
48 48 49 49 48 48 48 48 49 49 48 48 48 47 47 47 47 47 46 46 45 45 45 45 45 45 44 44 43 43 43 43 44 44 43 43 43 43
47 47 46 46 45 45 46 46 46 46 46 45 45 44 44 44 44 44 44 43 42 42 42 42 42 42 41 41 40 40 40 40 40 40 40 40 41 41
45 44 44 44 44 44 44 44 44 44 44 43 43 43 42 42 42 42 42 41 40 40 39 39 39 39 39 38 38 38 37 37 37 37 38 38 37 37
44 43 43 43 43 43 42 42 41 41 41 41 40 40 39 39 39 39 39 39 39 38 38 37 37 37 36 36 35 36 35 35 35 35 35 35 34 33
42 42 42 41 41 40 39 39 38 38 38 38 37 37 36 36 36 36 37 37 37 37 37 37 36 35 34 33 33 33 34 34 34 33 33 32 31 30
40 40 39 39 38 37 37 36 36 36 35 35 35 35 35 35 35 35 35 35 35 35 34 34 34 33 32 32 31 31 32 32 32 31 31 29 28 27
37 37 37 36 35 35 34 34 34 33 33 34 33 33 34 34 33 33 33 33 33 33 32 32 31 31 30 30 30 30 30 29 29 29 28 27 26 25
36 35 35 34 33 33 32 32 32 32 32 32 32 32 33 32 32 32 32 31 31 30 30 29 28 28 28 28 28 28 28 27 26 26 26 26 25 24
Wind_Direction
268 269 269 270 272 273 275 275 275 276 276 276 277 277 278 278 278 278 277 278 278 279 279 279 279 279 279 279 279 278 278 277 277 277 277 277 276 276
269 270 270 271 272 274 274 275 276 276 276 277 278 279 279 279 279 278 278 278 279 279 279 279 279 279 279 279 278 278 278 278 277 277 276 275 274 274
270 271 271 271 272 274 275 275 276 276 277 277 278 280 280 279 279 279 278 278 279 279 279 279 279 279 279 279 279 279 278 278 277 276 275 274 273 273
271 272 272 273 273 274 275 276 276 276 278 279 279 280 280 280 280 279 279 279 279 280 280 280 280 279 279 279 279 278 278 277 276 276 275 274 274 273
271 272 273 274 274 275 275 275 276 276 278 279 279 279 280 280 279 280 279 279 279 279 280 280 279 280 280 280 279 279 278 277 276 275 275 274 273 273
271 273 274 275 275 275 275 276 276 277 278 279 279 280 280 279 279 280 280 280 279 279 280 280 280 279 280 279 279 278 278 277 276 276 275 274 273 272
272 273 274 274 275 276 276 276 277 278 278 279 279 280 280 279 280 280 281 281 280 280 279 279 280 279 280 279 278 278 277 277 277 276 275 274 273 272
273 273 274 275 276 276 277 277 277 278 278 278 278 279 280 280 280 281 281 281 280 279 279 279 279 280 279 278 278 278 277 276 276 276 275 275 274 273
273 274 275 276 276 276 277 277 277 277 277 277 278 279 279 279 280 280 280 279 280 279 279 279 279 279 278 278 278 278 278 277 277 276 276 275 274 274
274 275 276 277 277 277 277 277 277 277 276 276 277 277 277 278 279 279 279 279 279 279 279 278 277 278 278 278 278 279 279 278 278 277 277 276 275 275
275 276 277 277 277 276 277 277 277 277 276 276 276 277 277 278 279 279 279 279 279 279 279 278 277 278 278 279 279 279 279 279 278 279 278 278 277 276
276 276 277 277 276 276 277 277 277 277 277 277 276 276 277 278 279 279 279 279 279 278 278 279 279 278 278 278 278 279 279 280 279 279 279 279 279 277
277 277 276 276 276 276 276 277 277 277 277 277 276 276 277 278 279 278 278 279 279 279 279 279 279 279 279 279 279 279 280 281 281 280 279 279 279 279
276 276 276 275 276 275 276 277 277 277 278 277 277 277 277 277 278 277 277 279 279 279 280 281 281 280 280 281 280 281 281 281 281 280 279 279 279 279
276 276 276 276 275 276 276 277 277 278 278 278 278 277 277 278 277 277 278 279 280 280 281 281 282 282 282 282 282 282 282 281 280 280 279 279 278 278
276 276 276 277 277 278 277 278 278 279 279 278 278 278 278 278 278 277 278 279 279 280 281 282 282 283 284 284 283 283 282 281 280 279 279 279 278 277
277 277 278 278 278 278 277 278 279 279 278 278 277 278 279 278 277 276 277 277 278 280 280 281 282 283 283 283 283 283 283 282 281 280 279 279 279 278
278 278 278 278 278 279 279 279 280 279 278 278 278 277 277 277 276 275 276 276 278 279 280 281 281 282 282 283 284 284 284 283 282 282 281 281 280 278
278 278 278 278 278 278 278 279 279 278 279 279 278 277 277 276 275 275 275 276 278 279 280 281 281 282 282 283 283 284 283 283 284 284 284 283 281 278
277 277 277 276 276 277 277 278 278 278 278 278 277 277 277 277 276 276 277 277 278 279 280 281 281 282 283 283 282 283 284 285 285 285 285 285 282 279
275 276 276 275 275 275 276 277 277 277 278 278 276 276 277 277 277 277 277 277 278 279 280 280 281 282 282 283 283 284 285 285 286 285 285 285 283 280
275 275 275 274 273 273 274 276 276 277 277 278 277 277 277 277 278 278 278 277 277 278 278 279 280 280 281 282 283 283 284 285 285 286 285 284 282 281
274 274 274 273 272 272 274 275 276 277 277 278 277 277 278 277 278 278 278 277 276 276 277 277 278 280 281 282 283 284 284 285 285 285 285 285 284 282